| time (UTC) | temp C | wind direction | speed KPH | gust KPH | rain 1hr cm | rain 24hr cm | rain mn cm | humidity % | barometer mb |
| 20260505213703 | 12 | 358 | 8.0 | 22.5 | 0.00 | 0.00 | 0.00 | 68 | 1011.4 |
| 20260505213203 | 12 | 15 | 6.4 | 19.3 | 0.00 | 0.00 | 0.00 | 68 | 1011.5 |
| 20260505210203 | 12 | 20 | 6.4 | 19.3 | 0.00 | 0.00 | 0.00 | 70 | 1011.1 |
| 20260505203703 | 12 | 27 | 6.4 | 25.7 | 0.00 | 0.00 | 0.00 | 70 | 1011.1 |
| 20260505203203 | 12 | 346 | 6.4 | 22.5 | 0.00 | 0.00 | 0.00 | 70 | 1011.0 |
| 20260505200704 | 12 | 296 | 3.2 | 16.1 | 0.00 | 0.00 | 0.00 | 71 | 1011.0 |
| 20260505193203 | 12 | 62 | 3.2 | 25.7 | 0.00 | 0.00 | 0.00 | 72 | 1011.4 |
| 20260505190204 | 12 | 350 | 6.4 | 19.3 | 0.00 | 0.00 | 0.00 | 71 | 1010.7 |
| 20260505183704 | 12 | 22 | 4.8 | 14.5 | 0.00 | 0.00 | 0.00 | 73 | 1010.4 |
| 20260505180203 | 12 | 334 | 6.4 | 27.4 | 0.00 | 0.00 | 0.00 | 77 | 1010.1 |
| 20260505173703 | 12 | 27 | 4.8 | 12.9 | 0.00 | 0.00 | 0.00 | 77 | 1009.9 |
| 20260505173203 | 12 | 33 | 8.0 | 27.4 | 0.00 | 0.00 | 0.00 | 77 | 1009.9 |
| 20260505170703 | 12 | 27 | 6.4 | 25.7 | 0.00 | 0.00 | 0.00 | 76 | 1009.6 |
| 20260505170203 | 12 | 355 | 8.0 | 22.5 | 0.00 | 0.00 | 0.00 | 77 | 1009.3 |
| 20260505163704 | 12 | 53 | 4.8 | 16.1 | 0.00 | 0.00 | 0.00 | 78 | 1008.9 |
| 20260505160703 | 13 | 17 | 4.8 | 19.3 | 0.00 | 0.00 | 0.00 | 79 | 1007.9 |
| 20260505160204 | 13 | 346 | 8.0 | 25.7 | 0.00 | 0.00 | 0.00 | 79 | 1007.9 |
| 20260505153203 | 13 | 22 | 8.0 | 22.5 | 0.00 | 0.00 | 0.00 | 80 | 1007.3 |
| 20260505150704 | 14 | 19 | 9.7 | 20.9 | 0.00 | 0.00 | 0.00 | 80 | 1007.1 |
| 20260505150204 | 14 | 351 | 9.7 | 37.0 | 0.00 | 0.00 | 0.00 | 79 | 1006.9 |
| 20260505140204 | 18 | 15 | 4.8 | 16.1 | 0.00 | 0.00 | 0.00 | 79 | 1005.4 |
| 20260505130204 | 18 | 118 | 1.6 | 14.5 | 0.00 | 0.00 | 0.00 | 81 | 1004.4 |
| 20260505123704 | 18 | 109 | 3.2 | 4.8 | 0.00 | 0.00 | 0.00 | 81 | 1004.3 |
| 20260505123204 | 18 | 95 | 6.4 | 20.9 | 0.00 | 0.00 | 0.00 | 81 | 1004.2 |
| 20260505120703 | 18 | 133 | 6.4 | 19.3 | 0.00 | 0.00 | 0.00 | 82 | 1003.7 |
| 20260505120204 | 18 | 108 | 6.4 | 19.3 | 0.00 | 0.00 | 0.00 | 82 | 1003.7 |
| 20260505113703 | 18 | 10 | 3.2 | 14.5 | 0.00 | 0.00 | 0.00 | 82 | 1003.5 |
| 20260505110704 | 18 | 48 | 4.8 | 8.0 | 0.00 | 0.00 | 0.00 | 82 | 1003.1 |
| 20260505110203 | 18 | 74 | 1.6 | 14.5 | 0.00 | 0.00 | 0.00 | 82 | 1003.3 |
| 20260505100704 | 18 | 116 | 1.6 | 4.8 | 0.00 | 0.00 | 0.00 | 82 | 1002.4 |
| 20260505093704 | 19 | 114 | 4.8 | 11.3 | 0.00 | 0.00 | 0.00 | 81 | 1001.7 |
| 20260505093203 | 19 | 122 | 8.0 | 19.3 | 0.00 | 0.00 | 0.00 | 81 | 1001.6 |
| 20260505090703 | 20 | 106 | 9.7 | 19.3 | 0.00 | 0.00 | 0.00 | 80 | 1001.7 |
| 20260505090204 | 20 | 105 | 4.8 | 16.1 | 0.00 | 0.00 | 0.00 | 80 | 1001.8 |
| 20260505083704 | 20 | 135 | 8.0 | 14.5 | 0.00 | 0.00 | 0.00 | 79 | 1001.9 |
| 20260505083203 | 20 | 92 | 6.4 | 16.1 | 0.00 | 0.00 | 0.00 | 79 | 1002.1 |
| 20260505080703 | 20 | 122 | 4.8 | 11.3 | 0.00 | 0.00 | 0.00 | 78 | 1002.1 |
| 20260505080204 | 21 | 96 | 3.2 | 12.9 | 0.00 | 0.00 | 0.00 | 78 | 1002.3 |
| 20260505073703 | 21 | 134 | 4.8 | 9.7 | 0.00 | 0.00 | 0.00 | 77 | 1002.3 |
| 20260505070703 | 21 | 160 | 4.8 | 11.3 | 0.00 | 0.00 | 0.00 | 75 | 1002.6 |
| 20260505070203 | 21 | 141 | 8.0 | 14.5 | 0.00 | 0.00 | 0.00 | 76 | 1002.7 |
| 20260505063704 | 22 | 89 | 1.6 | 4.8 | 0.00 | 0.00 | 0.00 | 74 | 1002.9 |
| 20260505063204 | 22 | 71 | 1.6 | 19.3 | 0.00 | 0.00 | 0.00 | 74 | 1002.8 |
| 20260505060704 | 22 | 179 | 4.8 | 14.5 | 0.00 | 0.00 | 0.00 | 73 | 1002.5 |
| 20260505060204 | 22 | 175 | 6.4 | 22.5 | 0.00 | 0.00 | 0.00 | 73 | 1002.5 |
| 20260505053703 | 22 | 170 | 9.7 | 29.0 | 0.00 | 0.00 | 0.00 | 73 | 1002.5 |
| 20260505050704 | 22 | 163 | 9.7 | 19.3 | 0.00 | 0.00 | 0.00 | 72 | 1002.7 |
| 20260505050204 | 22 | 168 | 6.4 | 20.9 | 0.00 | 0.00 | 0.00 | 72 | 1002.8 |
| 20260505040704 | 23 | 177 | 11.3 | 20.9 | 0.00 | 0.00 | 0.00 | 71 | 1003.2 |
| 20260505040203 | 23 | 177 | 8.0 | 22.5 | 0.00 | 0.00 | 0.00 | 71 | 1003.3 |
| 20260505033703 | 23 | 171 | 8.0 | 19.3 | 0.00 | 0.00 | 0.00 | 70 | 1003.3 |
| 20260505033203 | 23 | 151 | 9.7 | 22.5 | 0.00 | 0.00 | 0.00 | 70 | 1003.3 |
| 20260505030204 | 23 | 144 | 11.3 | 25.7 | 0.00 | 0.00 | 0.00 | 69 | 1003.7 |
| 20260505020704 | 23 | 142 | 8.0 | 12.9 | 0.00 | 0.00 | 0.00 | 69 | 1003.3 |
| 20260505020204 | 23 | 130 | 8.0 | 19.3 | 0.00 | 0.00 | 0.00 | 69 | 1003.3 |
| 20260505013203 | 24 | 126 | 9.7 | 19.3 | 0.00 | 0.00 | 0.00 | 67 | 1003.5 |
| 20260505010704 | 24 | 129 | 11.3 | 19.3 | 0.00 | 0.00 | 0.00 | 66 | 1003.5 |
| 20260505010203 | 25 | 132 | 8.0 | 19.3 | 0.00 | 0.00 | 0.00 | 65 | 1003.5 |
| 20260505003704 | 25 | 154 | 9.7 | 14.5 | 0.00 | 0.00 | 0.00 | 64 | 1003.5 |
| 20260505003204 | 25 | 136 | 8.0 | 24.1 | 0.00 | 0.00 | 0.00 | 64 | 1003.5 |
| 20260505000704 | 25 | 139 | 11.3 | 22.5 | 0.00 | 0.00 | 0.00 | 62 | 1003.5 |
| 20260505000204 | 25 | 150 | 9.7 | 24.1 | 0.00 | 0.00 | 0.00 | 62 | 1003.5 |
| 20260504233703 | 26 | 166 | 11.3 | 25.7 | 0.00 | 0.00 | 0.00 | 60 | 1004.1 |
| 20260504230703 | 26 | 155 | 9.7 | 25.7 | 0.00 | 0.00 | 0.00 | 58 | 1004.3 |
| 20260504230203 | 26 | 160 | 11.3 | 25.7 | 0.00 | 0.00 | 0.00 | 58 | 1004.4 |
| 20260504223704 | 27 | 168 | 6.4 | 24.1 | 0.00 | 0.00 | 0.00 | 58 | 1004.6 |
| 20260504223203 | 27 | 164 | 8.0 | 24.1 | 0.00 | 0.00 | 0.00 | 58 | 1004.5 |
| 20260504220703 | 26 | 182 | 11.3 | 27.4 | 0.00 | 0.00 | 0.00 | 56 | 1004.4 |